User: anonymous   Login
Location: Kergrach
(48.3833°N, 4.5167°W)
Time: 06:42:52
(UTC+00:00)
Language:

COSMOS 2428 - Orbit

View from above orbital plane
View from above orbital plane
View from above satellite
View from above satellite

Ground track
Ground track

The orbit data is extracted from the following two-line orbital elements,

1 31792U 07029A   20152.70968068 -.00000299  00000-0 -13638-3 0  9990
2 31792  70.9147 308.1366 0007040  82.1396 278.0523 14.12343534666509
Epoch (UTC): 31 May 2020 17:01:56
Eccentricity: 0.0007040
inclination: 70.9147°
perigee height: 846 km
apogee height: 856 km
right ascension of ascending node: 308.1366°
argument of perigee: 82.1396°
revolutions per day: 14.12343534
mean anomaly at epoch: 278.0523°
orbit number at epoch: 66650

The dashed part of the orbit path shows where the satellite is in the earth's shadow,  

DLR